sat.trackr.live / text

‹ back to catalog

STARLINK-6189

NORAD 56377 · 2023-061D

PAYLOAD ACTIVE UNKNOWN

§ Identity

Operator
Country
US
Launch date
2023-05-04
Launch site
AFETR
Launch vehicle
Mass (kg)
RCS (m²)

Purposes: comms

External: N2YO · Heavens-Above · Gunter

§ Orbital elements

Epoch: 2026-09-20T01:59:07.961856Z

Period
94.27 min
Inclination
43.0040°
Eccentricity
0.0001226
Mean motion
15.27575440 rev/d
Perigee alt
482.2 km
Apogee alt
483.9 km
Semi-major
6,861.2 km
B*
8.4862e-6
RAAN
180.5778°
Arg perigee
259.5227°
Mean anomaly
100.5487°
Rev number
18,647

§ Raw data

STARLINK-61891 56377U 23061D   26263.08273104 -.00000029  00000+0  84862-5 0  99982 56377  43.0040 180.5778 0001226 259.5227 100.5487 15.27575440186471

JSON: /api/v1/satellites/56377 · /tle

For live sub-satellite position, see the globe view (requires WebGL).

§ Visibility from observer

Set your observer location to see the next 7 days of passes ≥ 10°. The values pass through the URL so the page stays shareable.

No JS? Fill the form by hand. The geolocation button needs JavaScript.